When you browse on this site, cookies collect data to enhance your experience and personalize the content and advertising you see.
Visit our Privacy Policy to learn more. By continuing to use the site, you agree to this use of cookies and data.
  • In Latvia
  • List of Countries
  • For 7 days
  • Water Temperature
  • Weather Map
  • Weather Widgets
  • user-avatar
    Login

    Hourly Weather Hukalivtsi

    Today, 3 April, Friday

    Time Temperature Precipitation Wind Pressure Humidity
    00:00 +1°C° 0 mm 3 mps 723 mmHg 61%
    01:00 0°C° 0 mm 3 mps 723 mmHg 60%
    02:00 -1°C° 0 mm 4 mps 723 mmHg 59%
    03:00 -1°C° 0 mm 4 mps 723 mmHg 60%
    04:00 -1°C° 0 mm 4 mps 723 mmHg 60%
    05:00 -1°C° 0 mm 4 mps 722 mmHg 60%
    06:00 0°C° 0 mm 5 mps 723 mmHg 58%
    07:00 +1°C° 0 mm 6 mps 723 mmHg 56%
    08:00 +2°C° 0 mm 7 mps 723 mmHg 55%
    09:00 +4°C° 0 mm 6 mps 723 mmHg 52%
    10:00 +5°C° 0 mm 6 mps 723 mmHg 50%
    11:00 +7°C° 0 mm 6 mps 723 mmHg 48%
    12:00 +8°C° 0 mm 6 mps 723 mmHg 46%
    13:00 +9°C° 0 mm 6 mps 724 mmHg 44%
    14:00 +10°C° 0 mm 6 mps 724 mmHg 42%
    15:00 +10°C° 0 mm 6 mps 724 mmHg 45%
    16:00 +9°C° 0 mm 6 mps 724 mmHg 48%
    17:00 +9°C° 0 mm 6 mps 724 mmHg 51%
    18:00 +7°C° 0 mm 5 mps 724 mmHg 59%
    19:00 +6°C° 0 mm 4 mps 725 mmHg 66%
    20:00 +5°C° 0 mm 3 mps 726 mmHg 74%
    21:00 +4°C° 0 mm 3 mps 726 mmHg 78%
    22:00 +4°C° 0 mm 2 mps 727 mmHg 82%
    23:00 +4°C° 0 mm 2 mps 727 mmHg 86%

    Tomorrow, 4 April, Saturday

    Time Temperature Precipitation Wind Pressure Humidity
    00:00 +3°C° 0 mm 2 mps 728 mmHg 86%
    01:00 +3°C° 0 mm 2 mps 728 mmHg 86%
    02:00 +2°C° 0 mm 2 mps 729 mmHg 86%
    03:00 +2°C° 0 mm 2 mps 729 mmHg 85%
    04:00 +1°C° 0 mm 2 mps 729 mmHg 84%
    05:00 +1°C° 0 mm 2 mps 730 mmHg 84%
    06:00 +3°C° 0 mm 1 mps 730 mmHg 78%
    07:00 +4°C° 0 mm 1 mps 731 mmHg 72%
    08:00 +5°C° 0 mm 1 mps 731 mmHg 67%
    09:00 +5°C° 0 mm 2 mps 732 mmHg 60%
    10:00 +6°C° 0 mm 2 mps 732 mmHg 54%
    11:00 +7°C° 0 mm 2 mps 733 mmHg 47%
    12:00 +8°C° 0 mm 2 mps 733 mmHg 46%
    13:00 +8°C° 0 mm 2 mps 733 mmHg 45%
    14:00 +8°C° 0 mm 2 mps 733 mmHg 43%
    15:00 +8°C° 0.1 mm 2 mps 733 mmHg 47%
    16:00 +8°C° 0.1 mm 2 mps 733 mmHg 51%
    17:00 +8°C° 0.1 mm 3 mps 733 mmHg 54%
    18:00 +7°C° 0 mm 2 mps 734 mmHg 60%
    19:00 +7°C° 0 mm 1 mps 734 mmHg 66%
    20:00 +5°C° 0 mm 1 mps 735 mmHg 72%
    21:00 +5°C° 0 mm 1 mps 735 mmHg 72%
    22:00 +5°C° 0 mm 1 mps 736 mmHg 73%
    23:00 +4°C° 0 mm 1 mps 736 mmHg 74%

    Day after tomorrow, 5 April, Sunday

    Time Temperature Precipitation Wind Pressure Humidity
    00:00 +4°C° 0 mm 1 mps 737 mmHg 75%
    01:00 +3°C° 0 mm 1 mps 737 mmHg 77%
    02:00 +3°C° 0 mm 1 mps 738 mmHg 78%
    03:00 +2°C° 0 mm 1 mps 738 mmHg 77%
    04:00 +1°C° 0 mm 2 mps 738 mmHg 75%
    05:00 +1°C° 0 mm 2 mps 739 mmHg 74%
    06:00 +1°C° 0 mm 2 mps 739 mmHg 69%
    07:00 +1°C° 0 mm 3 mps 740 mmHg 64%
    08:00 +2°C° 0 mm 3 mps 740 mmHg 59%
    09:00 +3°C° 0 mm 3 mps 740 mmHg 54%
    10:00 +5°C° 0 mm 3 mps 741 mmHg 50%
    11:00 +7°C° 0 mm 3 mps 741 mmHg 45%
    12:00 +7°C° 0 mm 3 mps 741 mmHg 41%
    13:00 +8°C° 0 mm 3 mps 741 mmHg 38%
    14:00 +8°C° 0 mm 3 mps 741 mmHg 34%
    15:00 +8°C° 0 mm 3 mps 741 mmHg 35%
    16:00 +8°C° 0 mm 3 mps 741 mmHg 35%
    17:00 +7°C° 0 mm 4 mps 741 mmHg 35%
    18:00 +7°C° 0 mm 3 mps 741 mmHg 40%
    19:00 +4°C° 0 mm 3 mps 741 mmHg 45%
    20:00 +3°C° 0 mm 3 mps 741 mmHg 50%
    21:00 +2°C° 0 mm 3 mps 742 mmHg 52%
    22:00 +2°C° 0 mm 3 mps 742 mmHg 53%
    23:00 +1°C° 0 mm 3 mps 742 mmHg 55%

    6 April, Monday

    Time Temperature Precipitation Wind Pressure Humidity
    00:00 +1°C° 0 mm 3 mps 742 mmHg 56%
    01:00 0°C° 0 mm 4 mps 742 mmHg 58%
    02:00 -1°C° 0 mm 4 mps 742 mmHg 59%
    03:00 -1°C° 0 mm 4 mps 742 mmHg 60%
    04:00 -1°C° 0 mm 4 mps 742 mmHg 60%
    05:00 -1°C° 0 mm 4 mps 743 mmHg 61%
    06:00 -1°C° 0 mm 5 mps 743 mmHg 58%
    07:00 -1°C° 0 mm 6 mps 743 mmHg 54%
    08:00 0°C° 0 mm 7 mps 743 mmHg 51%
    09:00 +3°C° 0 mm 7 mps 743 mmHg 47%
    10:00 +4°C° 0 mm 7 mps 743 mmHg 44%
    11:00 +7°C° 0 mm 6 mps 743 mmHg 40%
    12:00 +8°C° 0 mm 6 mps 743 mmHg 38%
    13:00 +9°C° 0 mm 6 mps 743 mmHg 37%
    14:00 +10°C° 0 mm 6 mps 743 mmHg 35%
    15:00 +10°C° 0 mm 6 mps 743 mmHg 36%
    16:00 +9°C° 0 mm 6 mps 742 mmHg 37%
    17:00 +9°C° 0 mm 6 mps 742 mmHg 37%
    18:00 +8°C° 0 mm 5 mps 742 mmHg 41%
    19:00 +6°C° 0 mm 5 mps 742 mmHg 45%
    20:00 +4°C° 0 mm 4 mps 742 mmHg 48%
    21:00 +4°C° 0 mm 4 mps 742 mmHg 48%
    22:00 +3°C° 0 mm 5 mps 742 mmHg 47%
    23:00 +2°C° 0 mm 5 mps 742 mmHg 47%

    7 April, Tuesday

    Time Temperature Precipitation Wind Pressure Humidity
    00:00 +2°C° 0 mm 5 mps 742 mmHg 47%
    01:00 +2°C° 0 mm 5 mps 742 mmHg 47%
    02:00 +1°C° 0 mm 4 mps 741 mmHg 47%
    03:00 +1°C° 0 mm 4 mps 741 mmHg 48%
    04:00 0°C° 0 mm 4 mps 741 mmHg 49%
    05:00 0°C° 0 mm 4 mps 741 mmHg 50%
    06:00 +1°C° 0 mm 4 mps 741 mmHg 48%
    07:00 +3°C° 0 mm 4 mps 741 mmHg 47%
    08:00 +3°C° 0 mm 5 mps 742 mmHg 45%
    09:00 +6°C° 0 mm 5 mps 742 mmHg 42%
    10:00 +8°C° 0 mm 5 mps 742 mmHg 40%
    11:00 +10°C° 0 mm 5 mps 742 mmHg 37%
    12:00 +12°C° 0 mm 4 mps 742 mmHg 35%
    13:00 +13°C° 0 mm 4 mps 741 mmHg 33%
    14:00 +14°C° 0 mm 4 mps 741 mmHg 31%
    15:00 +14°C° 0 mm 3 mps 741 mmHg 32%
    16:00 +14°C° 0 mm 3 mps 741 mmHg 33%
    17:00 +15°C° 0 mm 2 mps 740 mmHg 33%
    18:00 +13°C° 0 mm 2 mps 740 mmHg 38%
    19:00 +10°C° 0 mm 2 mps 740 mmHg 43%
    20:00 +8°C° 0 mm 2 mps 740 mmHg 48%
    21:00 +8°C° 0 mm 2 mps 740 mmHg 50%
    22:00 +7°C° 0 mm 2 mps 740 mmHg 52%
    23:00 +6°C° 0 mm 2 mps 740 mmHg 54%

    8 April, Wednesday

    Time Temperature Precipitation Wind Pressure Humidity
    00:00 +6°C° 0 mm 2 mps 740 mmHg 54%
    01:00 +5°C° 0 mm 2 mps 740 mmHg 55%
    02:00 +6°C° 0 mm 1 mps 740 mmHg 56%
    03:00 +6°C° 0 mm 1 mps 740 mmHg 56%
    04:00 +5°C° 0 mm 1 mps 740 mmHg 55%
    05:00 +5°C° 0 mm 1 mps 740 mmHg 55%
    06:00 +7°C° 0 mm 1 mps 740 mmHg 53%
    07:00 +8°C° 0 mm 1 mps 740 mmHg 51%
    08:00 +9°C° 0 mm 1 mps 740 mmHg 49%
    09:00 +11°C° 0 mm 1 mps 740 mmHg 45%
    10:00 +13°C° 0 mm 2 mps 740 mmHg 42%
    11:00 +14°C° 0 mm 2 mps 740 mmHg 38%
    12:00 +15°C° 0 mm 2 mps 740 mmHg 35%
    13:00 +16°C° 0 mm 2 mps 740 mmHg 32%
    14:00 +17°C° 0 mm 2 mps 740 mmHg 30%
    15:00 +17°C° 0 mm 2 mps 740 mmHg 31%
    16:00 +17°C° 0 mm 2 mps 739 mmHg 33%
    17:00 +17°C° 0 mm 2 mps 739 mmHg 34%
    18:00 +15°C° 0 mm 2 mps 739 mmHg 39%
    19:00 +13°C° 0 mm 2 mps 739 mmHg 44%
    20:00 +11°C° 0 mm 1 mps 739 mmHg 49%
    21:00 +11°C° 0 mm 1 mps 739 mmHg 51%
    22:00 +10°C° 0 mm 1 mps 739 mmHg 52%
    23:00 +9°C° 0 mm 1 mps 739 mmHg 54%
    Show more